Vorticity
12 12 11 11 11 11 9 8 8 8 7 5 5 6 8 9 6 3 6 6 6 7 8 11 10 10 8 6 7 8 9 5 4 13 16 9 6 8 6 7 8 10 17 13 5 2 2 2 2 2 3 5 8 10 14 14 12 11 8 5 3 3
12 11 11 11 10 9 9 9 8 8 7 5 5 5 7 8 6 5 8 8 9 9 9 10 10 11 9 7 7 8 7 5 6 9 15 12 3 5 7 6 8 10 16 14 5 2 2 2 2 2 2 3 6 8 11 14 13 11 10 7 4 3
11 12 12 11 9 9 8 8 8 8 7 6 6 6 5 6 7 7 7 9 11 11 9 8 9 11 11 10 8 8 7 5 7 8 10 13 7 6 7 5 8 10 13 15 7 1 2 2 2 3 2 3 5 7 9 11 12 11 9 8 6 4
11 12 12 11 9 9 8 8 9 9 7 7 7 6 5 6 7 8 7 9 10 12 13 10 8 11 14 14 12 10 10 8 8 11 8 9 13 12 8 2 5 10 12 15 8 1 1 2 2 2 3 3 4 6 8 9 11 10 9 8 7 5
13 13 11 9 9 8 7 8 8 8 6 6 6 6 6 5 6 7 7 9 9 11 14 14 10 11 11 11 12 11 12 11 10 13 10 7 11 15 14 6 3 7 12 15 10 3 1 2 3 2 3 4 4 5 7 8 9 9 9 9 9 8
11 11 10 8 8 6 7 7 6 6 5 5 4 5 6 5 7 7 6 7 7 9 11 13 11 10 9 8 9 11 13 13 12 13 11 8 7 13 19 11 3 3 8 15 13 4 1 1 2 2 3 3 4 5 6 8 8 8 8 8 9 9
9 10 9 8 7 6 6 5 5 5 4 4 4 5 6 5 6 5 5 6 5 7 8 8 9 9 10 10 9 10 13 13 14 13 11 9 3 13 24 11 4 4 3 11 15 8 2 1 2 1 2 3 4 4 5 7 8 8 7 7 8 8
9 9 8 7 6 6 5 5 5 4 4 4 4 4 5 5 4 4 4 4 4 5 5 5 6 8 8 10 11 11 13 13 15 14 13 11 2 11 23 10 4 6 4 6 11 12 5 1 2 2 2 2 3 4 4 6 8 8 7 7 7 6
8 9 8 6 5 5 5 5 5 4 4 4 4 4 4 3 3 3 3 3 4 4 3 4 5 6 6 7 11 10 9 11 14 12 12 13 7 8 16 12 5 5 6 5 5 12 11 3 1 2 2 1 3 3 3 5 7 8 8 7 7 6
8 8 7 5 4 4 4 5 5 5 5 4 4 4 4 4 4 4 4 4 5 4 3 4 4 5 6 6 9 9 7 9 12 12 11 14 12 7 9 14 13 7 4 3 2 8 13 10 3 1 2 2 2 3 3 3 5 7 7 8 7 6
8 7 5 4 3 4 4 4 5 5 5 6 6 6 6 5 5 5 5 5 5 5 4 4 4 4 6 6 8 10 10 11 11 10 10 13 15 11 7 9 15 14 6 1 2 3 9 13 9 3 2 2 2 2 3 3 3 5 6 6 7 7
7 5 4 3 3 3 4 4 5 5 6 6 6 7 7 7 7 6 6 6 5 6 6 5 5 4 5 6 6 8 10 11 9 9 9 8 10 13 12 9 10 15 13 6 3 2 4 9 12 9 3 1 2 2 2 3 3 3 4 5 5 5
7 5 3 3 3 3 4 4 5 6 6 7 8 8 8 8 8 7 7 7 7 7 8 7 6 4 4 5 6 7 8 7 6 7 11 10 8 11 15 15 9 8 14 12 5 2 3 5 8 12 10 4 1 2 2 2 3 3 3 4 4 4
7 5 3 3 3 4 4 5 5 6 7 8 9 9 9 9 9 9 8 8 7 7 8 7 6 5 4 4 6 7 7 7 8 6 6 10 11 11 13 17 17 9 8 11 9 3 1 2 4 8 12 10 4 1 2 1 1 3 3 3 3 4
5 4 3 3 3 4 4 5 5 6 8 9 11 11 10 10 9 8 7 7 6 6 7 7 7 7 6 5 6 8 7 6 9 9 7 6 6 11 13 14 21 20 11 9 10 9 4 0 1 5 8 11 10 4 1 2 1 2 2 3 3 3
5 4 3 4 4 4 4 5 6 7 8 9 11 11 10 9 8 7 6 6 6 6 7 7 8 9 8 7 6 8 7 4 5 9 12 8 0 6 13 12 14 18 17 14 11 12 12 4 1 3 4 8 12 8 3 3 2 2 1 2 3 3
5 4 4 4 4 5 5 5 7 8 8 8 9 10 9 8 7 5 5 6 7 7 8 8 8 9 8 7 8 7 6 5 6 7 12 12 4 5 12 14 12 8 11 17 16 16 18 13 5 3 3 5 9 10 7 4 2 2 2 1 2 2
4 4 5 5 5 6 6 6 7 7 8 8 7 8 8 7 6 5 6 7 7 8 9 9 8 9 10 9 10 8 5 6 6 7 10 11 9 7 8 12 14 9 6 11 13 12 20 22 13 7 3 2 6 8 8 8 5 3 3 3 2 2
7 7 7 7 8 7 7 7 7 6 7 7 7 7 7 7 6 6 6 7 8 7 8 9 8 9 11 11 11 8 7 8 6 6 9 9 9 9 6 8 15 14 7 10 13 4 9 21 20 15 8 1 3 6 7 9 8 5 4 3 3 2
8 8 8 9 9 9 9 9 7 6 6 7 7 7 7 7 7 7 7 7 7 7 7 8 9 9 9 10 10 10 9 9 7 7 9 8 7 7 7 7 12 13 5 7 17 10 2 7 16 23 22 10 3 5 7 7 8 7 6 4 3 3
8 8 9 9 9 9 8 8 8 7 6 7 7 7 7 7 7 7 6 7 7 8 8 8 9 9 10 9 9 11 12 11 8 6 6 7 8 7 7 7 9 12 7 3 11 20 15 6 7 18 26 23 12 6 3 3 6 8 8 7 4 2
8 8 9 9 8 7 8 8 7 8 7 7 7 6 6 6 6 6 6 7 7 8 8 9 9 9 10 10 9 9 11 14 12 7 4 4 7 7 5 7 8 9 12 10 9 20 25 21 15 11 15 26 25 16 8 2 4 7 8 8 7 5
8 8 8 8 8 8 8 8 8 8 7 7 7 7 7 6 6 7 7 7 7 8 9 9 9 9 10 10 10 9 9 13 15 12 7 3 4 8 9 9 9 7 8 10 11 14 17 21 24 16 12 21 26 23 20 13 8 8 6 6 8 7
9 8 8 8 9 9 9 8 8 7 7 8 7 7 7 6 6 7 8 8 7 8 10 11 10 10 10 10 10 10 9 10 14 15 12 6 -1 3 11 10 7 7 5 4 8 13 8 4 12 17 14 15 19 25 28 21 13 8 5 6 9 8
11 10 10 10 11 10 9 9 8 7 7 8 7 7 7 7 7 8 8 8 9 9 9 11 12 11 10 10 10 11 10 9 11 13 15 13 4 -2 2 4 3 4 6 4 3 11 13 6 6 10 13 13 15 24 32 27 18 11 4 3 6 7
11 11 10 11 11 10 9 9 7 7 8 8 9 9 9 9 9 10 10 10 10 10 10 11 12 12 11 10 10 10 11 10 10 11 13 15 14 8 4 4 2 0 4 4 -0 1 5 8 8 5 8 13 11 15 25 29 26 21 12 6 4 5
11 11 10 11 10 9 9 9 9 9 9 9 9 10 10 10 10 10 11 11 11 11 10 11 12 13 12 10 10 10 10 10 10 10 11 13 14 16 13 10 6 3 3 4 2 -1 -4 2 11 9 7 9 7 5 9 19 24 22 18 13 9 7
11 11 11 11 10 9 9 9 9 9 9 9 9 10 11 11 12 12 10 10 11 13 13 12 12 13 12 11 10 10 10 10 10 9 10 11 12 15 16 15 13 10 9 7 4 3 -0 1 8 11 10 8 7 2 0 8 14 13 13 13 11 12
10 11 11 11 10 9 9 9 9 9 10 10 10 10 11 12 13 12 10 8 8 11 12 12 13 13 13 12 10 9 9 9 9 10 9 10 10 11 13 15 15 14 14 13 11 8 6 4 3 5 7 7 6 4 2 4 6 7 10 9 7 7
11 11 11 11 11 10 9 10 10 11 11 11 11 11 12 13 13 11 9 9 9 10 11 12 13 13 13 13 12 10 9 9 8 9 9 9 10 10 11 12 13 14 13 14 15 14 12 10 6 5 5 5 6 7 7 6 4 4 5 6 7 4
10 11 12 11 10 10 10 10 10 11 11 11 11 12 12 12 12 9 8 8 9 10 10 10 11 12 13 13 13 11 10 10 10 9 9 9 9 9 10 10 11 12 12 11 11 13 13 12 10 8 7 7 8 10 11 11 10 7 4 4 6 6
7 9 11 11 10 9 9 10 11 10 10 10 10 11 11 10 9 8 7 7 8 9 10 10 9 10 11 12 12 12 11 10 9 9 10 9 10 10 9 10 10 11 12 11 10 10 11 12 12 11 10 9 9 10 12 14 14 14 13 10 8 8
8 6 8 9 9 9 9 9 10 10 10 10 10 10 10 10 9 7 6 6 6 8 9 9 9 9 10 11 11 12 11 11 10 10 10 10 9 10 9 9 10 10 10 11 11 10 10 11 10 10 10 10 9 9 9 11 12 13 14 15 15 14
8 7 7 7 6 6 5 5 6 7 8 9 9 9 10 10 10 8 6 5 5 6 7 8 10 9 9 9 10 11 12 11 10 9 9 9 9 9 9 9 8 9 10 10 10 9 9 10 10 9 9 9 9 8 8 9 10 10 10 11 13 15
9 9 7 7 7 7 6 5 5 6 6 7 8 8 9 10 10 9 8 7 6 5 6 8 9 10 10 9 9 10 11 12 12 10 9 8 8 8 8 8 8 8 8 9 10 10 8 8 8 8 8 9 8 8 8 8 8 9 9 9 9 10
10 12 12 11 11 10 10 11 10 9 8 7 7 7 8 9 9 9 8 7 7 6 6 7 7 8 9 9 10 10 10 11 11 11 10 9 9 8 8 7 8 7 7 7 8 10 10 9 8 8 8 8 8 8 8 8 8 8 8 8 8 9
7 8 9 9 10 11 12 12 12 12 13 13 12 9 7 7 7 8 8 8 8 7 6 6 7 7 7 7 8 8 9 10 10 10 10 10 9 8 8 8 7 7 6 6 5 5 7 8 8 7 7 7 7 7 7 7 8 8 8 7 7 8
Height
5810 5811 5811 5812 5812 5812 5812 5812 5812 5813 5813 5813 5813 5813 5813 5813 5812 5811 5811 5811 5811 5811 5811 5811 5811 5812 5813 5813 5814 5814 5815 5816 5817 5818 5819 5820 5821 5822 5823 5825 5827 5829 5831 5832 5834 5835 5837 5837 5838 5839 5841 5842 5844 5845 5846 5848 5850 5852 5854 5855 5856 5858
5808 5808 5809 5809 5809 5810 5810 5810 5810 5811 5811 5811 5811 5811 5811 5811 5810 5810 5809 5810 5810 5810 5811 5810 5811 5811 5811 5811 5812 5812 5813 5814 5816 5817 5818 5818 5819 5820 5821 5823 5825 5827 5829 5831 5833 5834 5835 5836 5837 5838 5839 5841 5842 5844 5845 5847 5848 5850 5852 5854 5855 5856
5805 5806 5806 5807 5807 5808 5808 5808 5809 5809 5809 5809 5810 5810 5809 5808 5808 5808 5808 5809 5809 5809 5809 5809 5810 5810 5810 5810 5810 5811 5811 5812 5814 5815 5816 5817 5818 5819 5820 5821 5823 5825 5827 5830 5831 5833 5834 5835 5835 5836 5838 5839 5841 5842 5844 5845 5847 5849 5850 5852 5853 5854
5803 5804 5804 5805 5805 5805 5806 5806 5807 5807 5807 5808 5808 5808 5808 5807 5806 5807 5807 5807 5807 5808 5808 5808 5808 5808 5809 5809 5809 5809 5810 5811 5812 5813 5814 5814 5815 5817 5818 5820 5821 5823 5825 5827 5830 5831 5832 5833 5834 5835 5836 5838 5839 5841 5842 5844 5845 5847 5848 5850 5851 5853
5801 5802 5802 5802 5803 5803 5804 5804 5805 5805 5806 5806 5806 5806 5806 5805 5804 5805 5805 5806 5806 5807 5807 5807 5807 5807 5807 5807 5807 5807 5808 5809 5809 5810 5811 5812 5813 5814 5816 5817 5819 5821 5823 5825 5828 5830 5831 5832 5833 5833 5835 5837 5838 5840 5841 5842 5844 5845 5846 5848 5849 5850
5799 5800 5800 5800 5801 5801 5802 5803 5803 5804 5804 5804 5804 5804 5804 5804 5803 5803 5804 5805 5805 5806 5805 5805 5805 5805 5805 5805 5805 5805 5806 5807 5807 5808 5809 5810 5811 5812 5813 5815 5817 5819 5821 5823 5826 5828 5830 5831 5832 5832 5833 5835 5837 5838 5840 5841 5842 5843 5844 5846 5847 5849
5797 5797 5798 5798 5799 5799 5800 5801 5802 5802 5802 5803 5803 5803 5803 5803 5802 5802 5802 5804 5804 5804 5804 5804 5804 5804 5803 5803 5804 5804 5805 5805 5806 5806 5807 5808 5809 5810 5811 5812 5814 5817 5819 5821 5823 5826 5828 5829 5830 5831 5831 5833 5835 5837 5838 5840 5841 5842 5843 5844 5845 5847
5794 5795 5795 5796 5797 5797 5798 5799 5800 5800 5801 5801 5801 5801 5801 5801 5801 5800 5801 5802 5803 5803 5803 5803 5803 5803 5802 5802 5803 5803 5804 5803 5804 5805 5805 5806 5807 5808 5809 5810 5812 5814 5816 5818 5821 5824 5826 5827 5829 5829 5830 5831 5833 5835 5837 5838 5839 5840 5841 5842 5843 5845
5792 5792 5793 5794 5795 5796 5797 5797 5798 5799 5799 5799 5800 5800 5800 5799 5799 5799 5799 5799 5800 5801 5801 5801 5801 5801 5801 5801 5801 5801 5801 5801 5802 5803 5803 5804 5805 5806 5807 5808 5810 5811 5814 5816 5818 5821 5824 5826 5827 5828 5828 5829 5832 5833 5835 5836 5838 5838 5839 5840 5841 5842
5789 5790 5791 5792 5793 5793 5794 5795 5796 5796 5797 5798 5798 5798 5798 5798 5797 5797 5797 5797 5798 5799 5799 5799 5799 5799 5799 5799 5799 5799 5799 5800 5800 5801 5801 5802 5803 5804 5805 5807 5808 5809 5811 5813 5816 5819 5821 5824 5826 5827 5827 5828 5830 5832 5833 5834 5836 5837 5837 5838 5839 5840
5787 5788 5789 5789 5790 5791 5792 5793 5793 5794 5795 5795 5795 5795 5796 5796 5795 5795 5795 5796 5796 5796 5797 5797 5797 5797 5797 5798 5798 5797 5797 5798 5798 5798 5799 5800 5801 5802 5803 5805 5806 5808 5809 5811 5813 5816 5818 5821 5823 5825 5826 5826 5828 5829 5831 5832 5834 5835 5836 5836 5837 5838
5786 5786 5787 5787 5788 5788 5789 5790 5791 5791 5792 5793 5793 5793 5793 5793 5793 5793 5793 5794 5794 5794 5794 5794 5794 5795 5796 5796 5796 5796 5795 5796 5796 5797 5797 5798 5798 5799 5800 5802 5803 5805 5807 5808 5810 5813 5815 5818 5820 5822 5824 5825 5825 5827 5828 5830 5831 5833 5834 5835 5836 5836
5784 5784 5785 5785 5786 5786 5787 5787 5788 5789 5789 5790 5790 5790 5790 5791 5791 5791 5791 5792 5792 5792 5790 5791 5793 5793 5793 5794 5794 5794 5793 5794 5795 5795 5795 5795 5795 5796 5797 5798 5800 5802 5804 5806 5808 5810 5812 5814 5817 5819 5821 5823 5823 5824 5826 5828 5829 5830 5832 5833 5834 5835
5782 5783 5783 5784 5784 5784 5784 5785 5785 5786 5787 5787 5788 5788 5788 5788 5788 5789 5789 5790 5790 5789 5788 5789 5791 5791 5791 5791 5792 5792 5791 5792 5793 5792 5792 5792 5793 5794 5794 5795 5797 5799 5801 5803 5805 5807 5809 5811 5813 5816 5818 5820 5821 5822 5823 5825 5826 5828 5829 5831 5832 5833
5780 5781 5781 5782 5782 5782 5782 5782 5783 5783 5784 5785 5785 5785 5786 5786 5786 5786 5787 5787 5788 5787 5786 5787 5788 5789 5789 5789 5789 5789 5789 5790 5790 5789 5790 5791 5792 5792 5793 5794 5795 5796 5798 5800 5802 5804 5806 5808 5809 5812 5814 5817 5819 5820 5821 5822 5824 5825 5826 5828 5830 5831
5778 5778 5779 5779 5779 5779 5780 5780 5781 5781 5782 5782 5783 5783 5783 5783 5783 5784 5784 5785 5785 5785 5785 5785 5785 5786 5787 5786 5786 5786 5787 5788 5787 5788 5789 5790 5790 5791 5792 5792 5793 5794 5795 5797 5799 5800 5802 5804 5806 5808 5810 5813 5815 5817 5818 5819 5820 5822 5823 5825 5827 5828
5775 5775 5776 5776 5777 5777 5777 5778 5778 5779 5779 5780 5780 5780 5780 5780 5780 5781 5781 5782 5782 5782 5782 5782 5783 5783 5783 5783 5783 5784 5786 5786 5786 5786 5786 5787 5788 5789 5790 5790 5790 5791 5792 5794 5795 5796 5798 5800 5802 5804 5806 5809 5811 5813 5814 5816 5817 5818 5821 5822 5824 5825
5771 5772 5773 5773 5774 5774 5774 5775 5775 5776 5776 5777 5777 5777 5777 5777 5777 5778 5778 5779 5779 5779 5779 5780 5780 5780 5780 5780 5781 5782 5783 5784 5784 5784 5784 5786 5786 5787 5788 5788 5788 5789 5790 5791 5792 5792 5794 5796 5798 5800 5802 5805 5807 5809 5810 5812 5814 5816 5817 5819 5820 5821
5767 5768 5769 5770 5770 5771 5771 5772 5772 5773 5773 5774 5774 5774 5774 5774 5774 5775 5775 5776 5776 5776 5777 5777 5777 5777 5777 5778 5778 5778 5779 5781 5781 5781 5782 5783 5784 5784 5785 5785 5786 5787 5788 5788 5789 5789 5790 5792 5794 5796 5798 5800 5803 5805 5807 5809 5811 5813 5814 5815 5816 5818
5764 5765 5766 5767 5767 5768 5768 5768 5768 5769 5770 5770 5771 5771 5772 5772 5772 5772 5772 5772 5773 5773 5773 5774 5774 5774 5774 5775 5775 5775 5776 5777 5778 5779 5780 5780 5781 5781 5782 5782 5784 5785 5785 5785 5786 5787 5788 5789 5790 5792 5794 5796 5799 5801 5803 5805 5807 5809 5810 5812 5813 5815
5761 5762 5763 5764 5764 5764 5764 5765 5765 5765 5766 5767 5768 5768 5768 5769 5769 5769 5769 5769 5770 5770 5770 5771 5771 5771 5772 5772 5772 5772 5773 5773 5775 5776 5777 5778 5778 5779 5780 5781 5782 5782 5782 5782 5784 5785 5785 5786 5787 5789 5790 5792 5794 5796 5798 5800 5803 5805 5807 5809 5810 5811
5757 5758 5759 5760 5760 5761 5761 5761 5762 5763 5763 5764 5764 5765 5765 5765 5765 5766 5766 5766 5766 5767 5767 5767 5768 5768 5769 5769 5769 5769 5770 5771 5772 5773 5774 5775 5776 5776 5778 5778 5778 5779 5780 5780 5781 5782 5782 5783 5784 5785 5785 5787 5788 5790 5792 5795 5798 5800 5802 5804 5806 5808
5754 5755 5756 5756 5757 5757 5758 5758 5759 5760 5760 5761 5761 5761 5761 5762 5762 5762 5763 5763 5763 5763 5764 5764 5765 5765 5766 5766 5766 5767 5767 5768 5769 5770 5771 5773 5773 5774 5775 5775 5776 5776 5777 5778 5778 5779 5780 5780 5781 5782 5782 5783 5785 5786 5787 5789 5792 5795 5797 5800 5803 5805
5751 5752 5752 5753 5753 5754 5754 5755 5756 5757 5758 5758 5758 5758 5758 5758 5758 5759 5759 5760 5760 5760 5761 5761 5762 5762 5762 5763 5763 5764 5764 5765 5767 5767 5768 5769 5770 5771 5772 5772 5773 5774 5775 5776 5776 5777 5777 5778 5778 5779 5780 5780 5782 5783 5784 5784 5787 5789 5792 5795 5798 5800
5748 5749 5749 5749 5750 5751 5751 5752 5753 5754 5754 5755 5755 5755 5755 5755 5755 5755 5756 5756 5757 5757 5757 5758 5759 5759 5759 5760 5760 5761 5761 5761 5763 5764 5765 5766 5767 5768 5768 5768 5770 5771 5772 5774 5774 5775 5775 5776 5776 5777 5778 5778 5779 5780 5781 5782 5783 5785 5788 5791 5794 5796
5745 5746 5746 5747 5748 5748 5748 5748 5749 5750 5751 5751 5752 5752 5752 5752 5752 5752 5752 5753 5754 5754 5754 5755 5756 5756 5757 5757 5757 5758 5758 5759 5759 5760 5762 5763 5764 5765 5765 5765 5766 5768 5769 5770 5771 5772 5772 5773 5774 5775 5775 5776 5777 5778 5779 5780 5781 5783 5785 5788 5790 5792
5742 5744 5744 5745 5745 5744 5744 5745 5746 5747 5748 5748 5749 5749 5749 5749 5749 5749 5750 5750 5750 5751 5751 5752 5752 5753 5754 5754 5755 5755 5756 5756 5757 5757 5758 5759 5761 5762 5763 5763 5764 5765 5767 5767 5768 5769 5770 5771 5772 5773 5773 5774 5775 5776 5777 5778 5779 5780 5782 5784 5786 5788
5740 5741 5742 5742 5742 5741 5741 5742 5743 5744 5745 5745 5745 5746 5746 5746 5746 5746 5747 5747 5748 5748 5748 5749 5749 5750 5751 5752 5752 5753 5753 5754 5754 5755 5755 5756 5758 5760 5761 5761 5761 5762 5763 5764 5765 5766 5767 5768 5769 5770 5771 5772 5773 5774 5775 5775 5777 5778 5779 5781 5783 5784
5738 5739 5740 5740 5740 5739 5739 5739 5740 5741 5741 5741 5742 5742 5743 5743 5743 5743 5744 5744 5744 5745 5745 5746 5746 5747 5748 5749 5750 5750 5750 5751 5751 5752 5753 5753 5755 5756 5758 5758 5759 5759 5760 5762 5762 5763 5765 5766 5766 5767 5768 5769 5770 5772 5773 5773 5774 5775 5776 5778 5780 5780
5735 5736 5737 5738 5737 5737 5736 5736 5737 5738 5738 5738 5738 5739 5739 5740 5740 5740 5740 5741 5741 5742 5743 5743 5744 5745 5745 5746 5747 5747 5748 5748 5749 5749 5750 5751 5751 5753 5754 5755 5756 5757 5758 5759 5760 5760 5761 5763 5763 5764 5765 5766 5767 5769 5770 5771 5772 5772 5774 5775 5777 5777
5733 5734 5735 5735 5735 5734 5734 5734 5734 5735 5735 5735 5735 5735 5736 5736 5737 5737 5737 5738 5738 5739 5740 5741 5742 5742 5743 5744 5744 5745 5745 5746 5746 5747 5747 5748 5749 5750 5751 5752 5753 5754 5755 5755 5756 5757 5758 5759 5760 5761 5762 5763 5764 5765 5767 5768 5768 5769 5770 5772 5774 5775
5730 5731 5732 5732 5732 5732 5732 5732 5732 5732 5732 5732 5732 5732 5733 5733 5734 5734 5734 5735 5735 5736 5737 5738 5739 5740 5740 5741 5742 5742 5743 5743 5744 5744 5745 5746 5746 5747 5748 5749 5750 5751 5752 5752 5753 5754 5755 5756 5757 5758 5759 5760 5760 5761 5763 5764 5765 5766 5766 5768 5770 5772
5727 5728 5729 5730 5730 5730 5730 5730 5729 5730 5730 5730 5730 5730 5730 5730 5731 5731 5731 5731 5732 5732 5733 5734 5735 5737 5737 5738 5739 5740 5741 5741 5742 5742 5743 5743 5744 5744 5745 5746 5746 5747 5748 5749 5750 5751 5752 5753 5754 5755 5756 5757 5757 5758 5759 5760 5761 5762 5763 5764 5766 5767
5724 5725 5726 5727 5727 5728 5727 5727 5727 5727 5727 5727 5728 5728 5728 5728 5728 5728 5728 5729 5729 5729 5730 5731 5732 5733 5734 5735 5736 5737 5738 5739 5740 5740 5740 5741 5741 5742 5742 5743 5744 5744 5745 5747 5748 5748 5749 5750 5751 5752 5752 5753 5754 5755 5756 5757 5758 5759 5759 5760 5762 5763
5721 5722 5723 5724 5724 5725 5725 5725 5725 5725 5725 5725 5725 5726 5726 5726 5726 5726 5726 5726 5726 5727 5727 5728 5729 5730 5731 5731 5732 5733 5735 5736 5737 5737 5738 5738 5739 5739 5740 5740 5741 5742 5743 5744 5745 5746 5746 5747 5748 5749 5749 5750 5751 5752 5753 5753 5754 5755 5756 5756 5757 5759
5719 5720 5720 5720 5721 5722 5722 5723 5723 5723 5723 5723 5723 5723 5724 5724 5724 5724 5724 5724 5724 5724 5725 5726 5727 5727 5728 5728 5729 5730 5731 5732 5733 5734 5735 5736 5736 5737 5737 5738 5738 5739 5740 5740 5741 5742 5743 5744 5745 5745 5746 5746 5747 5748 5749 5750 5751 5751 5752 5753 5753 5754
5717 5717 5717 5717 5718 5719 5719 5720 5720 5720 5720 5720 5720 5720 5721 5721 5722 5722 5722 5722 5722 5722 5723 5723 5724 5725 5725 5726 5726 5727 5727 5728 5729 5730 5731 5732 5733 5734 5734 5735 5735 5736 5736 5737 5737 5738 5739 5740 5741 5742 5742 5743 5743 5744 5745 5746 5746 5747 5748 5749 5749 5750